Time,TemperatureF,DewpointF,PressureIn,WindDirection,WindDirectionDegrees,WindSpeedMPH,WindSpeedGustMPH,Humidity,HourlyPrecipIn,Conditions,Clouds,dailyrainin,SoftwareType,DateUTC
2013-04-01 00:04:00,49.1,44.5,29.78,West,268,3.0,5.0,84,0.00,,,0.00,Wunderground PWS Mod,2013-04-01 04:04:00,
2013-04-01 00:06:00,48.8,44.2,29.77,West,270,2.0,5.0,84,0.00,,,0.00,Wunderground PWS Mod,2013-04-01 04:06:00,
2013-04-01 00:08:00,48.8,44.2,29.77,West,270,2.0,5.0,84,0.00,,,0.00,Wunderground PWS Mod,2013-04-01 04:08:00,
2013-04-01 00:10:00,48.8,44.2,29.77,West,270,2.0,5.0,84,0.00,,,0.00,Wunderground PWS Mod,2013-04-01 04:10:00,
2013-04-01 00:12:00,48.8,44.2,29.77,West,270,2.0,5.0,84,0.00,,,0.00,Wunderground PWS Mod,2013-04-01 04:12:00,
2013-04-01 00:14:00,48.8,44.2,29.78,West,271,3.0,5.0,84,0.00,,,0.00,Wunderground PWS Mod,2013-04-01 04:14:00,
2013-04-01 00:24:00,48.6,44.0,29.79,West,270,1.0,5.0,84,0.00,,,0.00,Wunderground PWS Mod,2013-04-01 04:24:00,
2013-04-01 00:34:00,48.4,44.1,29.78,West,271,2.0,5.0,85,0.00,,,0.00,Wunderground PWS Mod,2013-04-01 04:34:00,
2013-04-01 00:36:00,48.8,44.2,29.77,West,270,2.0,5.0,84,0.00,,,0.00,Wunderground PWS Mod,2013-04-01 04:36:00,
2013-04-01 00:44:00,48.3,44.0,29.78,West,271,1.0,5.0,85,0.00,,,0.00,Wunderground PWS Mod,2013-04-01 04:44:00,
2013-04-01 00:54:00,48.2,43.9,29.78,West,270,3.0,5.0,85,0.00,,,0.00,Wunderground PWS Mod,2013-04-01 04:54:00,
2013-04-01 01:04:00,48.1,43.8,29.78,West,270,3.0,4.0,85,0.00,,,0.00,Wunderground PWS Mod,2013-04-01 05:04:00,
2013-04-01 01:06:00,48.3,44.0,29.76,West,270,2.0,4.0,85,0.00,,,0.00,Wunderground PWS Mod,2013-04-01 05:06:00,
2013-04-01 01:08:00,48.3,44.0,29.76,West,270,2.0,4.0,85,0.00,,,0.00,Wunderground PWS Mod,2013-04-01 05:08:00,
2013-04-01 01:10:00,48.3,44.0,29.76,West,270,2.0,4.0,85,0.00,,,0.00,Wunderground PWS Mod,2013-04-01 05:10:00,
2013-04-01 01:12:00,48.3,44.0,29.76,West,270,2.0,4.0,85,0.00,,,0.00,Wunderground PWS Mod,2013-04-01 05:12:00,
2013-04-01 01:14:00,47.9,43.9,29.77,SW,231,2.0,4.0,86,0.00,,,0.00,Wunderground PWS Mod,2013-04-01 05:14:00,
2013-04-01 01:24:00,47.6,43.6,29.78,SW,231,2.0,4.0,86,0.00,,,0.00,Wunderground PWS Mod,2013-04-01 05:24:00,
2013-04-01 01:34:00,47.5,43.5,29.78,SW,231,1.0,4.0,86,0.00,,,0.00,Wunderground PWS Mod,2013-04-01 05:34:00,
2013-04-01 01:40:00,47.8,43.8,29.77,SW,225,2.0,4.0,86,0.00,,,0.00,Wunderground PWS Mod,2013-04-01 05:40:00,
2013-04-01 01:42:00,47.8,43.8,29.77,SW,225,2.0,4.0,86,0.00,,,0.00,Wunderground PWS Mod,2013-04-01 05:42:00,
2013-04-01 01:44:00,47.4,43.7,29.78,WSW,254,3.0,4.0,87,0.00,,,0.00,Wunderground PWS Mod,2013-04-01 05:44:00,
2013-04-01 01:54:00,47.2,43.5,29.78,WSW,249,2.0,4.0,87,0.00,,,0.00,Wunderground PWS Mod,2013-04-01 05:54:00,
2013-04-01 02:04:00,47.1,43.4,29.78,WSW,257,2.0,4.0,87,0.00,,,0.00,Wunderground PWS Mod,2013-04-01 06:04:00,
2013-04-01 02:06:00,47.3,43.6,29.77,WSW,248,2.0,4.0,87,0.00,,,0.00,Wunderground PWS Mod,2013-04-01 06:06:00,
2013-04-01 02:08:00,47.3,43.6,29.77,WSW,248,2.0,4.0,87,0.00,,,0.00,Wunderground PWS Mod,2013-04-01 06:08:00,
2013-04-01 02:10:00,47.3,43.6,29.77,WSW,248,2.0,4.0,87,0.00,,,0.00,Wunderground PWS Mod,2013-04-01 06:10:00,
2013-04-01 02:12:00,47.3,43.6,29.77,WSW,248,2.0,4.0,87,0.00,,,0.00,Wunderground PWS Mod,2013-04-01 06:12:00,
2013-04-01 02:14:00,47.2,43.5,29.78,WSW,257,0.0,4.0,87,0.00,,,0.00,Wunderground PWS Mod,2013-04-01 06:14:00,
2013-04-01 02:24:00,47.3,43.9,29.77,WSW,257,1.0,4.0,88,0.00,,,0.00,Wunderground PWS Mod,2013-04-01 06:24:00,
2013-04-01 02:34:00,47.0,43.3,29.77,WSW,258,3.0,4.0,87,0.00,,,0.00,Wunderground PWS Mod,2013-04-01 06:34:00,
2013-04-01 02:36:00,47.2,43.5,29.75,WSW,248,1.0,3.0,87,0.00,,,0.00,Wunderground PWS Mod,2013-04-01 06:36:00,
2013-04-01 02:44:00,46.7,43.3,29.76,NW,317,2.0,4.0,88,0.00,,,0.00,Wunderground PWS Mod,2013-04-01 06:44:00,
2013-04-01 02:54:00,46.4,43.0,29.77,NW,317,3.0,4.0,88,0.00,,,0.00,Wunderground PWS Mod,2013-04-01 06:54:00,
2013-04-01 03:04:00,45.8,42.4,29.77,NW,317,1.0,5.0,88,0.00,,,0.00,Wunderground PWS Mod,2013-04-01 07:04:00,
2013-04-01 03:06:00,46.6,43.2,29.75,NW,315,2.0,5.0,88,0.00,,,0.00,Wunderground PWS Mod,2013-04-01 07:06:00,
2013-04-01 03:08:00,46.6,43.2,29.75,NW,315,2.0,5.0,88,0.00,,,0.00,Wunderground PWS Mod,2013-04-01 07:08:00,
2013-04-01 03:10:00,46.6,43.2,29.75,NW,315,2.0,5.0,88,0.00,,,0.00,Wunderground PWS Mod,2013-04-01 07:10:00,
2013-04-01 03:12:00,46.6,43.2,29.75,NW,315,2.0,5.0,88,0.00,,,0.00,Wunderground PWS Mod,2013-04-01 07:12:00,
2013-04-01 03:14:00,45.5,42.4,29.77,NW,317,2.0,5.0,89,0.00,,,0.00,Wunderground PWS Mod,2013-04-01 07:14:00,
2013-04-01 03:25:00,45.4,42.3,29.77,NW,317,1.0,5.0,89,0.00,,,0.00,Wunderground PWS Mod,2013-04-01 07:25:00,
2013-04-01 03:34:00,45.2,42.2,29.77,NW,317,2.0,5.0,89,0.00,,,0.00,Wunderground PWS Mod,2013-04-01 07:34:00,
2013-04-01 03:38:00,45.5,42.4,29.75,NW,315,2.0,3.0,89,0.00,,,0.00,Wunderground PWS Mod,2013-04-01 07:38:00,
2013-04-01 03:44:00,45.3,42.5,29.77,NW,314,3.0,5.0,90,0.00,,,0.00,Wunderground PWS Mod,2013-04-01 07:44:00,
2013-04-01 03:54:00,44.3,41.3,29.77,SSW,196,2.0,5.0,89,0.00,,,0.00,Wunderground PWS Mod,2013-04-01 07:54:00,
2013-04-01 04:04:00,44.8,42.0,29.77,West,271,1.0,5.0,90,0.00,,,0.00,Wunderground PWS Mod,2013-04-01 08:04:00,
2013-04-01 04:06:00,44.9,42.1,29.76,NW,315,2.0,5.0,90,0.00,,,0.00,Wunderground PWS Mod,2013-04-01 08:06:00,
2013-04-01 04:08:00,44.9,42.1,29.76,NW,315,2.0,5.0,90,0.00,,,0.00,Wunderground PWS Mod,2013-04-01 08:08:00,
2013-04-01 04:10:00,44.9,42.1,29.76,NW,315,2.0,5.0,90,0.00,,,0.00,Wunderground PWS Mod,2013-04-01 08:10:00,
2013-04-01 04:12:00,44.9,42.1,29.76,NW,315,2.0,5.0,90,0.00,,,0.00,Wunderground PWS Mod,2013-04-01 08:12:00,
2013-04-01 04:14:00,44.5,41.7,29.77,West,271,2.0,5.0,90,0.00,,,0.00,Wunderground PWS Mod,2013-04-01 08:14:00,
2013-04-01 04:24:00,44.4,41.4,29.77,West,271,1.0,5.0,89,0.00,,,0.00,Wunderground PWS Mod,2013-04-01 08:24:00,
2013-04-01 04:34:00,44.5,41.7,29.77,WNW,290,3.0,5.0,90,0.00,,,0.00,Wunderground PWS Mod,2013-04-01 08:34:00,
2013-04-01 04:40:00,44.5,41.7,29.76,West,270,2.0,3.0,90,0.00,,,0.00,Wunderground PWS Mod,2013-04-01 08:40:00,
2013-04-01 04:42:00,44.5,41.7,29.76,West,270,2.0,3.0,90,0.00,,,0.00,Wunderground PWS Mod,2013-04-01 08:42:00,
2013-04-01 04:44:00,44.5,41.7,29.77,WNW,290,1.0,5.0,90,0.00,,,0.00,Wunderground PWS Mod,2013-04-01 08:44:00,
2013-04-01 04:54:00,43.6,40.9,29.77,WNW,290,2.0,5.0,90,0.00,,,0.00,Wunderground PWS Mod,2013-04-01 08:54:00,
2013-04-01 05:04:00,44.1,41.4,29.78,WNW,290,2.0,5.0,90,0.00,,,0.00,Wunderground PWS Mod,2013-04-01 09:04:00,
2013-04-01 05:06:00,44.2,41.5,29.76,WNW,293,2.0,5.0,90,0.00,,,0.00,Wunderground PWS Mod,2013-04-01 09:06:00,
2013-04-01 05:14:00,43.8,41.1,29.78,WNW,290,1.0,5.0,90,0.00,,,0.00,Wunderground PWS Mod,2013-04-01 09:14:00,
2013-04-01 05:24:00,44.0,41.3,29.77,WNW,290,1.0,5.0,90,0.00,,,0.00,Wunderground PWS Mod,2013-04-01 09:24:00,
2013-04-01 05:34:00,44.4,41.7,29.77,WSW,257,1.0,5.0,90,0.00,,,0.00,Wunderground PWS Mod,2013-04-01 09:34:00,
2013-04-01 05:38:00,44.0,41.3,29.76,WNW,293,1.0,5.0,90,0.00,,,0.00,Wunderground PWS Mod,2013-04-01 09:38:00,
2013-04-01 05:44:00,44.3,41.6,29.77,WSW,257,1.0,5.0,90,0.00,,,0.00,Wunderground PWS Mod,2013-04-01 09:44:00,
2013-04-01 05:54:00,44.5,41.7,29.76,WSW,257,1.0,5.0,90,0.00,,,0.00,Wunderground PWS Mod,2013-04-01 09:54:00,
2013-04-01 06:04:00,44.4,41.4,29.76,WSW,257,2.0,4.0,89,0.00,,,0.00,Wunderground PWS Mod,2013-04-01 10:04:00,
2013-04-01 06:06:00,44.4,41.7,29.75,WSW,248,1.0,4.0,90,0.00,,,0.00,Wunderground PWS Mod,2013-04-01 10:06:00,
2013-04-01 06:08:00,44.4,41.7,29.75,WSW,248,1.0,4.0,90,0.00,,,0.00,Wunderground PWS Mod,2013-04-01 10:08:00,
2013-04-01 06:10:00,44.4,41.7,29.75,WSW,248,1.0,4.0,90,0.00,,,0.00,Wunderground PWS Mod,2013-04-01 10:10:00,
2013-04-01 06:12:00,44.4,41.7,29.75,WSW,248,1.0,4.0,90,0.00,,,0.00,Wunderground PWS Mod,2013-04-01 10:12:00,
2013-04-01 06:14:00,43.7,40.7,29.76,WSW,257,3.0,4.0,89,0.00,,,0.00,Wunderground PWS Mod,2013-04-01 10:14:00,
2013-04-01 06:24:00,43.6,40.6,29.76,SSW,209,2.0,4.0,89,0.00,,,0.00,Wunderground PWS Mod,2013-04-01 10:24:00,
2013-04-01 06:34:00,44.2,41.2,29.76,SSW,209,1.0,6.0,89,0.00,,,0.00,Wunderground PWS Mod,2013-04-01 10:34:00,
2013-04-01 06:38:00,43.9,41.2,29.75,WSW,248,2.0,6.0,90,0.00,,,0.00,Wunderground PWS Mod,2013-04-01 10:38:00,
2013-04-01 06:44:00,44.7,41.4,29.76,SSW,209,1.0,6.0,88,0.00,,,0.00,Wunderground PWS Mod,2013-04-01 10:44:00,
2013-04-01 06:54:00,43.9,40.0,29.76,SSW,209,2.0,6.0,86,0.00,,,0.00,Wunderground PWS Mod,2013-04-01 10:54:00,
2013-04-01 07:04:00,43.1,39.2,29.77,SSW,209,1.0,2.0,86,0.00,,,0.00,Wunderground PWS Mod,2013-04-01 11:04:00,
2013-04-01 07:06:00,44.2,40.3,29.75,SSW,203,1.0,2.0,86,0.00,,,0.00,Wunderground PWS Mod,2013-04-01 11:06:00,
2013-04-01 07:08:00,44.2,40.3,29.75,SSW,203,1.0,2.0,86,0.00,,,0.00,Wunderground PWS Mod,2013-04-01 11:08:00,
2013-04-01 07:10:00,44.2,40.3,29.75,SSW,203,1.0,2.0,86,0.00,,,0.00,Wunderground PWS Mod,2013-04-01 11:10:00,
2013-04-01 07:12:00,44.2,40.3,29.75,SSW,203,1.0,2.0,86,0.00,,,0.00,Wunderground PWS Mod,2013-04-01 11:12:00,
2013-04-01 07:14:00,42.8,38.9,29.76,SSW,209,4.0,4.0,86,0.00,,,0.00,Wunderground PWS Mod,2013-04-01 11:14:00,
2013-04-01 07:24:00,43.4,39.8,29.77,SSW,209,0.0,4.0,87,0.00,,,0.00,Wunderground PWS Mod,2013-04-01 11:24:00,
2013-04-01 07:34:00,44.1,40.5,29.77,SSW,209,1.0,4.0,87,0.00,,,0.00,Wunderground PWS Mod,2013-04-01 11:34:00,
2013-04-01 07:38:00,43.1,39.5,29.76,SSW,203,1.0,4.0,87,0.00,,,0.00,Wunderground PWS Mod,2013-04-01 11:38:00,
2013-04-01 07:44:00,44.9,41.3,29.77,SSW,210,2.0,4.0,87,0.00,,,0.00,Wunderground PWS Mod,2013-04-01 11:44:00,
2013-04-01 07:54:00,45.5,41.9,29.77,SSW,210,2.0,4.0,87,0.00,,,0.00,Wunderground PWS Mod,2013-04-01 11:54:00,
2013-04-01 08:04:00,46.0,42.3,29.78,West,264,2.0,7.0,87,0.00,,,0.00,Wunderground PWS Mod,2013-04-01 12:04:00,
2013-04-01 08:06:00,44.9,41.3,29.76,SSW,203,2.0,7.0,87,0.00,,,0.00,Wunderground PWS Mod,2013-04-01 12:06:00,
2013-04-01 08:08:00,44.9,41.3,29.76,SSW,203,2.0,7.0,87,0.00,,,0.00,Wunderground PWS Mod,2013-04-01 12:08:00,
2013-04-01 08:14:00,46.5,42.8,29.78,West,264,1.0,7.0,87,0.00,,,0.00,Wunderground PWS Mod,2013-04-01 12:14:00,
2013-04-01 08:24:00,47.0,43.6,29.78,West,264,1.0,7.0,88,0.00,,,0.00,Wunderground PWS Mod,2013-04-01 12:24:00,
2013-04-01 08:34:00,47.7,43.7,29.78,SW,228,2.0,7.0,86,0.00,,,0.00,Wunderground PWS Mod,2013-04-01 12:34:00,
2013-04-01 08:38:00,46.6,42.9,29.77,West,270,2.0,6.0,87,0.00,,,0.00,Wunderground PWS Mod,2013-04-01 12:38:00,
2013-04-01 08:44:00,48.8,43.9,29.78,West,264,3.0,7.0,83,0.00,,,0.00,Wunderground PWS Mod,2013-04-01 12:44:00,
2013-04-01 08:54:00,50.2,43.9,29.78,SW,233,4.0,7.0,79,0.00,,,0.00,Wunderground PWS Mod,2013-04-01 12:54:00,
2013-04-01 09:04:00,51.1,44.1,29.77,South,182,4.0,8.0,77,0.00,,,0.00,Wunderground PWS Mod,2013-04-01 13:04:00,
2013-04-01 09:06:00,49.1,42.2,29.76,SW,225,3.0,8.0,77,0.00,,,0.00,Wunderground PWS Mod,2013-04-01 13:06:00,
2013-04-01 09:14:00,50.8,43.5,29.77,SW,217,4.0,8.0,76,0.00,,,0.00,Wunderground PWS Mod,2013-04-01 13:14:00,
2013-04-01 09:24:00,51.0,42.6,29.77,SW,231,3.0,8.0,73,0.00,,,0.00,Wunderground PWS Mod,2013-04-01 13:24:00,
2013-04-01 09:34:00,52.1,42.6,29.77,WSW,254,3.0,11.0,70,0.00,,,0.00,Wunderground PWS Mod,2013-04-01 13:34:00,
2013-04-01 09:36:00,51.1,42.0,29.75,SW,225,4.0,11.0,71,0.00,,,0.00,Wunderground PWS Mod,2013-04-01 13:36:00,
2013-04-01 09:44:00,52.9,41.8,29.77,WSW,250,7.0,11.0,66,0.00,,,0.00,Wunderground PWS Mod,2013-04-01 13:44:00,
2013-04-01 09:54:00,53.9,41.6,29.77,WSW,253,6.0,11.0,63,0.00,,,0.00,Wunderground PWS Mod,2013-04-01 13:54:00,
2013-04-01 10:04:00,55.1,41.0,29.76,West,265,9.0,12.0,59,0.00,,,0.00,Wunderground PWS Mod,2013-04-01 14:04:00,
2013-04-01 10:06:00,53.2,40.5,29.75,WSW,248,5.0,12.0,62,0.00,,,0.00,Wunderground PWS Mod,2013-04-01 14:06:00,
2013-04-01 10:08:00,53.2,40.5,29.75,WSW,248,5.0,12.0,62,0.00,,,0.00,Wunderground PWS Mod,2013-04-01 14:08:00,
2013-04-01 10:10:00,53.2,40.5,29.75,WSW,248,5.0,12.0,62,0.00,,,0.00,Wunderground PWS Mod,2013-04-01 14:10:00,
2013-04-01 10:12:00,53.2,40.5,29.75,WSW,248,5.0,12.0,62,0.00,,,0.00,Wunderground PWS Mod,2013-04-01 14:12:00,
2013-04-01 10:14:00,56.2,40.2,29.76,West,266,9.0,12.0,55,0.00,,,0.00,Wunderground PWS Mod,2013-04-01 14:14:00,
2013-04-01 10:24:00,57.2,39.7,29.76,WSW,257,8.0,13.0,52,0.00,,,0.00,Wunderground PWS Mod,2013-04-01 14:24:00,
2013-04-01 10:34:00,58.0,38.4,29.76,WSW,238,10.0,16.0,48,0.00,,,0.00,Wunderground PWS Mod,2013-04-01 14:34:00,
2013-04-01 10:38:00,56.5,38.1,29.75,WSW,248,7.0,16.0,50,0.00,,,0.00,Wunderground PWS Mod,2013-04-01 14:38:00,
2013-04-01 10:44:00,58.5,37.8,29.76,West,267,3.0,16.0,46,0.00,,,0.00,Wunderground PWS Mod,2013-04-01 14:44:00,
2013-04-01 10:54:00,59.4,37.5,29.75,WNW,290,6.0,16.0,44,0.00,,,0.00,Wunderground PWS Mod,2013-04-01 14:54:00,
2013-04-01 11:04:00,60.0,36.8,29.75,WNW,292,8.0,15.0,42,0.00,,,0.00,Wunderground PWS Mod,2013-04-01 15:04:00,
2013-04-01 11:06:00,58.8,36.3,29.74,West,270,7.0,15.0,43,0.00,,,0.00,Wunderground PWS Mod,2013-04-01 15:06:00,
2013-04-01 11:08:00,58.8,36.3,29.74,West,270,7.0,15.0,43,0.00,,,0.00,Wunderground PWS Mod,2013-04-01 15:08:00,
2013-04-01 11:14:00,60.7,36.8,29.75,West,281,7.0,15.0,41,0.00,,,0.00,Wunderground PWS Mod,2013-04-01 15:14:00,
2013-04-01 11:24:00,61.0,37.1,29.75,NW,307,6.0,15.0,41,0.00,,,0.00,Wunderground PWS Mod,2013-04-01 15:24:00,
2013-04-01 11:34:00,62.0,36.7,29.75,WNW,288,7.0,16.0,39,0.00,,,0.00,Wunderground PWS Mod,2013-04-01 15:34:00,
2013-04-01 11:36:00,60.8,36.9,29.74,West,270,7.0,16.0,41,0.00,,,0.00,Wunderground PWS Mod,2013-04-01 15:36:00,
2013-04-01 11:44:00,62.9,35.5,29.74,WNW,300,11.0,16.0,36,0.00,,,0.00,Wunderground PWS Mod,2013-04-01 15:44:00,
2013-04-01 11:54:00,62.7,35.3,29.74,WNW,299,14.0,22.0,36,0.00,,,0.00,Wunderground PWS Mod,2013-04-01 15:54:00,
2013-04-01 12:04:00,62.7,36.7,29.75,NW,313,15.0,25.0,38,0.00,,,0.00,Wunderground PWS Mod,2013-04-01 16:04:00,
2013-04-01 12:06:00,62.4,35.1,29.73,NW,315,12.0,25.0,36,0.00,,,0.00,Wunderground PWS Mod,2013-04-01 16:06:00,
2013-04-01 12:08:00,62.4,35.1,29.73,NW,315,12.0,25.0,36,0.00,,,0.00,Wunderground PWS Mod,2013-04-01 16:08:00,
2013-04-01 12:10:00,62.4,35.1,29.73,NW,315,12.0,25.0,36,0.00,,,0.00,Wunderground PWS Mod,2013-04-01 16:10:00,
2013-04-01 12:12:00,62.4,35.1,29.73,NW,315,12.0,25.0,36,0.00,,,0.00,Wunderground PWS Mod,2013-04-01 16:12:00,
2013-04-01 12:14:00,62.9,38.2,29.74,WNW,295,5.0,25.0,40,0.00,,,0.00,Wunderground PWS Mod,2013-04-01 16:14:00,
2013-04-01 12:24:00,63.0,36.3,29.74,NW,304,10.0,25.0,37,0.00,,,0.00,Wunderground PWS Mod,2013-04-01 16:24:00,
2013-04-01 12:34:00,63.1,37.1,29.74,WNW,293,7.0,26.0,38,0.00,,,0.00,Wunderground PWS Mod,2013-04-01 16:34:00,
2013-04-01 12:38:00,62.9,36.2,29.72,WNW,293,11.0,26.0,37,0.00,,,0.00,Wunderground PWS Mod,2013-04-01 16:38:00,
2013-04-01 12:44:00,62.3,37.0,29.73,WNW,301,11.0,26.0,39,0.00,,,0.00,Wunderground PWS Mod,2013-04-01 16:44:00,
2013-04-01 12:54:00,62.4,36.4,29.73,NW,309,9.0,26.0,38,0.00,,,0.00,Wunderground PWS Mod,2013-04-01 16:54:00,
2013-04-01 13:04:00,63.7,36.2,29.73,NW,316,5.0,22.0,36,0.00,,,0.00,Wunderground PWS Mod,2013-04-01 17:04:00,
2013-04-01 13:06:00,62.7,36.0,29.72,WNW,293,10.0,22.0,37,0.00,,,0.00,Wunderground PWS Mod,2013-04-01 17:06:00,
2013-04-01 13:08:00,62.7,36.0,29.72,WNW,293,10.0,22.0,37,0.00,,,0.00,Wunderground PWS Mod,2013-04-01 17:08:00,
2013-04-01 13:10:00,62.7,36.0,29.72,WNW,293,10.0,22.0,37,0.00,,,0.00,Wunderground PWS Mod,2013-04-01 17:10:00,
2013-04-01 13:12:00,62.7,36.0,29.72,WNW,293,10.0,22.0,37,0.00,,,0.00,Wunderground PWS Mod,2013-04-01 17:12:00,
2013-04-01 13:14:00,62.7,36.7,29.73,WNW,286,9.0,22.0,38,0.00,,,0.00,Wunderground PWS Mod,2013-04-01 17:14:00,
2013-04-01 13:24:00,63.1,36.4,29.72,NW,326,7.0,22.0,37,0.00,,,0.00,Wunderground PWS Mod,2013-04-01 17:24:00,
2013-04-01 13:34:00,64.8,35.0,29.72,NW,311,7.0,22.0,33,0.00,,,0.00,Wunderground PWS Mod,2013-04-01 17:34:00,
2013-04-01 13:36:00,63.3,34.4,29.70,WNW,293,9.0,22.0,34,0.00,,,0.00,Wunderground PWS Mod,2013-04-01 17:36:00,
2013-04-01 13:44:00,65.3,35.4,29.72,WNW,287,14.0,22.0,33,0.00,,,0.00,Wunderground PWS Mod,2013-04-01 17:44:00,
2013-04-01 13:54:00,63.9,34.2,29.72,WNW,287,11.0,22.0,33,0.00,,,0.00,Wunderground PWS Mod,2013-04-01 17:54:00,
2013-04-01 14:04:00,63.2,33.6,29.72,NW,313,9.0,22.0,33,0.00,,,0.00,Wunderground PWS Mod,2013-04-01 18:04:00,
2013-04-01 14:06:00,64.5,34.7,29.70,WNW,293,11.0,22.0,33,0.00,,,0.00,Wunderground PWS Mod,2013-04-01 18:06:00,
2013-04-01 14:08:00,64.5,34.7,29.70,WNW,293,11.0,22.0,33,0.00,,,0.00,Wunderground PWS Mod,2013-04-01 18:08:00,
2013-04-01 14:10:00,64.5,34.7,29.70,WNW,293,11.0,22.0,33,0.00,,,0.00,Wunderground PWS Mod,2013-04-01 18:10:00,
2013-04-01 14:12:00,64.5,34.7,29.70,WNW,293,11.0,22.0,33,0.00,,,0.00,Wunderground PWS Mod,2013-04-01 18:12:00,
2013-04-01 14:14:00,62.2,32.7,29.73,NW,311,12.0,22.0,33,0.00,,,0.00,Wunderground PWS Mod,2013-04-01 18:14:00,
2013-04-01 14:24:00,61.9,32.5,29.72,NW,325,7.0,22.0,33,0.00,,,0.00,Wunderground PWS Mod,2013-04-01 18:24:00,
2013-04-01 14:34:00,62.0,32.5,29.72,NW,308,12.0,29.0,33,0.00,,,0.00,Wunderground PWS Mod,2013-04-01 18:34:00,
2013-04-01 14:36:00,62.4,32.9,29.71,NW,315,13.0,29.0,33,0.00,,,0.00,Wunderground PWS Mod,2013-04-01 18:36:00,
2013-04-01 14:44:00,62.4,33.6,29.72,NNW,345,9.0,29.0,34,0.00,,,0.00,Wunderground PWS Mod,2013-04-01 18:44:00,
2013-04-01 14:54:00,61.3,38.0,29.74,NNW,328,22.0,29.0,42,0.00,,,0.00,Wunderground PWS Mod,2013-04-01 18:54:00,
2013-04-01 15:04:00,59.5,38.1,29.74,NNW,342,6.0,27.0,45,0.00,,,0.00,Wunderground PWS Mod,2013-04-01 19:04:00,
2013-04-01 15:06:00,61.7,39.0,29.72,NNW,338,12.0,27.0,43,0.00,,,0.00,Wunderground PWS Mod,2013-04-01 19:06:00,
2013-04-01 15:08:00,61.7,39.0,29.72,NNW,338,12.0,27.0,43,0.00,,,0.00,Wunderground PWS Mod,2013-04-01 19:08:00,
2013-04-01 15:10:00,61.7,39.0,29.72,NNW,338,12.0,27.0,43,0.00,,,0.00,Wunderground PWS Mod,2013-04-01 19:10:00,
2013-04-01 15:12:00,61.7,39.0,29.72,NNW,338,12.0,27.0,43,0.00,,,0.00,Wunderground PWS Mod,2013-04-01 19:12:00,
2013-04-01 15:14:00,58.6,37.3,29.74,NNW,338,9.0,27.0,45,0.00,,,0.00,Wunderground PWS Mod,2013-04-01 19:14:00,
2013-04-01 15:24:00,57.8,36.6,29.75,North,351,8.0,27.0,45,0.00,,,0.00,Wunderground PWS Mod,2013-04-01 19:24:00,
2013-04-01 15:34:00,56.7,36.7,29.75,NNW,333,8.0,27.0,47,0.00,,,0.00,Wunderground PWS Mod,2013-04-01 19:34:00,
2013-04-01 15:38:00,58.3,38.1,29.74,NNW,338,10.0,23.0,47,0.00,,,0.00,Wunderground PWS Mod,2013-04-01 19:38:00,
2013-04-01 15:44:00,56.3,36.3,29.76,NW,326,13.0,27.0,47,0.00,,,0.00,Wunderground PWS Mod,2013-04-01 19:44:00,
2013-04-01 15:54:00,56.2,34.6,29.77,NW,305,13.0,27.0,44,0.00,,,0.00,Wunderground PWS Mod,2013-04-01 19:54:00,
2013-04-01 16:04:00,56.7,34.4,29.77,NW,324,6.0,27.0,43,0.00,,,0.00,Wunderground PWS Mod,2013-04-01 20:04:00,
2013-04-01 16:06:00,56.4,34.2,29.76,NNW,338,10.0,27.0,43,0.00,,,0.00,Wunderground PWS Mod,2013-04-01 20:06:00,
2013-04-01 16:08:00,56.4,34.2,29.76,NNW,338,10.0,27.0,43,0.00,,,0.00,Wunderground PWS Mod,2013-04-01 20:08:00,
2013-04-01 16:10:00,56.4,34.2,29.76,NNW,338,10.0,27.0,43,0.00,,,0.00,Wunderground PWS Mod,2013-04-01 20:10:00,
2013-04-01 16:12:00,56.4,34.2,29.76,NNW,338,10.0,27.0,43,0.00,,,0.00,Wunderground PWS Mod,2013-04-01 20:12:00,
2013-04-01 16:14:00,56.5,33.7,29.77,NW,316,21.0,27.0,42,0.00,,,0.00,Wunderground PWS Mod,2013-04-01 20:14:00,
2013-04-01 16:24:00,55.9,33.1,29.78,North,3,15.0,27.0,42,0.00,,,0.00,Wunderground PWS Mod,2013-04-01 20:24:00,
2013-04-01 16:34:00,55.1,32.4,29.78,NW,325,7.0,28.0,42,0.00,,,0.00,Wunderground PWS Mod,2013-04-01 20:34:00,
2013-04-01 16:36:00,56.2,34.0,29.77,NNW,338,11.0,28.0,43,0.00,,,0.00,Wunderground PWS Mod,2013-04-01 20:36:00,
2013-04-01 16:44:00,54.9,32.2,29.78,NW,321,18.0,28.0,42,0.00,,,0.00,Wunderground PWS Mod,2013-04-01 20:44:00,
2013-04-01 16:54:00,54.5,31.9,29.78,North,354,12.0,28.0,42,0.00,,,0.00,Wunderground PWS Mod,2013-04-01 20:54:00,
2013-04-01 17:04:00,54.1,30.9,29.79,NNW,338,6.0,29.0,41,0.00,,,0.00,Wunderground PWS Mod,2013-04-01 21:04:00,
2013-04-01 17:06:00,54.8,31.5,29.78,NNW,338,12.0,29.0,41,0.00,,,0.00,Wunderground PWS Mod,2013-04-01 21:06:00,
2013-04-01 17:08:00,54.8,31.5,29.78,NNW,338,12.0,29.0,41,0.00,,,0.00,Wunderground PWS Mod,2013-04-01 21:08:00,
2013-04-01 17:10:00,54.8,31.5,29.78,NNW,338,12.0,29.0,41,0.00,,,0.00,Wunderground PWS Mod,2013-04-01 21:10:00,
2013-04-01 17:12:00,54.8,31.5,29.78,NNW,338,12.0,29.0,41,0.00,,,0.00,Wunderground PWS Mod,2013-04-01 21:12:00,
2013-04-01 17:14:00,53.9,30.1,29.79,NW,317,11.0,29.0,40,0.00,,,0.00,Wunderground PWS Mod,2013-04-01 21:14:00,
2013-04-01 17:24:00,53.3,28.9,29.80,NW,319,11.0,29.0,39,0.00,,,0.00,Wunderground PWS Mod,2013-04-01 21:24:00,
2013-04-01 17:34:00,52.9,28.6,29.80,North,358,11.0,29.0,39,0.00,,,0.00,Wunderground PWS Mod,2013-04-01 21:34:00,
2013-04-01 17:38:00,53.6,29.8,29.80,NW,315,11.0,22.0,40,0.00,,,0.00,Wunderground PWS Mod,2013-04-01 21:38:00,
2013-04-01 17:44:00,53.3,27.7,29.81,NW,326,19.0,29.0,37,0.00,,,0.00,Wunderground PWS Mod,2013-04-01 21:44:00,
2013-04-01 17:54:00,53.4,26.4,29.81,NW,308,13.0,29.0,35,0.00,,,0.00,Wunderground PWS Mod,2013-04-01 21:54:00,
2013-04-01 18:04:00,53.3,24.9,29.82,NW,319,10.0,27.0,33,0.00,,,0.00,Wunderground PWS Mod,2013-04-01 22:04:00,
2013-04-01 18:06:00,53.2,24.8,29.80,NW,315,11.0,27.0,33,0.00,,,0.00,Wunderground PWS Mod,2013-04-01 22:06:00,
2013-04-01 18:08:00,53.2,24.8,29.80,NW,315,11.0,27.0,33,0.00,,,0.00,Wunderground PWS Mod,2013-04-01 22:08:00,
2013-04-01 18:14:00,53.1,24.7,29.82,NW,306,14.0,27.0,33,0.00,,,0.00,Wunderground PWS Mod,2013-04-01 22:14:00,
2013-04-01 18:24:00,52.7,26.5,29.83,NNW,344,8.0,27.0,36,0.00,,,0.00,Wunderground PWS Mod,2013-04-01 22:24:00,
2013-04-01 18:34:00,51.9,26.4,29.84,NNW,347,4.0,29.0,37,0.00,,,0.00,Wunderground PWS Mod,2013-04-01 22:34:00,
2013-04-01 18:36:00,52.9,26.6,29.83,NW,315,12.0,29.0,36,0.00,,,0.00,Wunderground PWS Mod,2013-04-01 22:36:00,
2013-04-01 18:44:00,50.8,26.1,29.85,WNW,301,10.0,29.0,38,0.00,,,0.00,Wunderground PWS Mod,2013-04-01 22:44:00,
2013-04-01 18:54:00,50.5,25.8,29.85,NNW,335,9.0,29.0,38,0.00,,,0.00,Wunderground PWS Mod,2013-04-01 22:54:00,
2013-04-01 19:04:00,50.0,25.4,29.85,NW,320,8.0,28.0,38,0.00,,,0.00,Wunderground PWS Mod,2013-04-01 23:04:00,
2013-04-01 19:06:00,51.0,26.3,29.84,NNW,338,11.0,28.0,38,0.00,,,0.00,Wunderground PWS Mod,2013-04-01 23:06:00,
2013-04-01 19:08:00,51.0,26.3,29.84,NNW,338,11.0,28.0,38,0.00,,,0.00,Wunderground PWS Mod,2013-04-01 23:08:00,
2013-04-01 19:10:00,51.0,26.3,29.84,NNW,338,11.0,28.0,38,0.00,,,0.00,Wunderground PWS Mod,2013-04-01 23:10:00,
2013-04-01 19:12:00,51.0,26.3,29.84,NNW,338,11.0,28.0,38,0.00,,,0.00,Wunderground PWS Mod,2013-04-01 23:12:00,
2013-04-01 19:14:00,49.4,24.2,29.87,NW,319,6.0,28.0,37,0.00,,,0.00,Wunderground PWS Mod,2013-04-01 23:14:00,
2013-04-01 19:24:00,48.8,23.6,29.88,NNW,328,8.0,28.0,37,0.00,,,0.00,Wunderground PWS Mod,2013-04-01 23:24:00,
2013-04-01 19:34:00,48.3,22.5,29.88,NW,308,4.0,28.0,36,0.00,,,0.00,Wunderground PWS Mod,2013-04-01 23:34:00,
2013-04-01 19:38:00,49.2,24.0,29.86,NNW,338,9.0,18.0,37,0.00,,,0.00,Wunderground PWS Mod,2013-04-01 23:38:00,
2013-04-01 19:44:00,47.9,21.5,29.89,NNW,344,16.0,28.0,35,0.00,,,0.00,Wunderground PWS Mod,2013-04-01 23:44:00,
2013-04-01 19:54:00,47.5,21.2,29.89,NW,309,5.0,28.0,35,0.00,,,0.00,Wunderground PWS Mod,2013-04-01 23:54:00,
2013-04-01 20:04:00,47.3,21.0,29.90,NNW,345,6.0,20.0,35,0.00,,,0.00,Wunderground PWS Mod,2013-04-02 00:04:00,
2013-04-01 20:06:00,47.9,21.5,29.88,NW,315,7.0,20.0,35,0.00,,,0.00,Wunderground PWS Mod,2013-04-02 00:06:00,
2013-04-01 20:08:00,47.9,21.5,29.88,NW,315,7.0,20.0,35,0.00,,,0.00,Wunderground PWS Mod,2013-04-02 00:08:00,
2013-04-01 20:10:00,47.9,21.5,29.88,NW,315,7.0,20.0,35,0.00,,,0.00,Wunderground PWS Mod,2013-04-02 00:10:00,
2013-04-01 20:12:00,47.9,21.5,29.88,NW,315,7.0,20.0,35,0.00,,,0.00,Wunderground PWS Mod,2013-04-02 00:12:00,
2013-04-01 20:16:00,46.9,21.3,29.90,NNW,340,9.0,20.0,36,0.00,,,0.00,Wunderground PWS Mod,2013-04-02 00:16:00,
2013-04-01 20:24:00,46.7,21.1,29.90,NNW,336,11.0,20.0,36,0.00,,,0.00,Wunderground PWS Mod,2013-04-02 00:24:00,
2013-04-01 20:34:00,46.5,19.6,29.91,NNW,336,9.0,21.0,34,0.00,,,0.00,Wunderground PWS Mod,2013-04-02 00:34:00,
2013-04-01 20:36:00,46.9,21.3,29.89,NNW,338,8.0,21.0,36,0.00,,,0.00,Wunderground PWS Mod,2013-04-02 00:36:00,
2013-04-01 20:44:00,46.3,18.7,29.91,NW,319,9.0,21.0,33,0.00,,,0.00,Wunderground PWS Mod,2013-04-02 00:44:00,
2013-04-01 20:54:00,46.1,18.6,29.92,NW,326,10.0,21.0,33,0.00,,,0.00,Wunderground PWS Mod,2013-04-02 00:54:00,
2013-04-01 21:04:00,46.0,18.5,29.92,NW,316,7.0,24.0,33,0.00,,,0.00,Wunderground PWS Mod,2013-04-02 01:04:00,
2013-04-01 21:06:00,46.3,18.0,29.91,NNW,338,8.0,24.0,32,0.00,,,0.00,Wunderground PWS Mod,2013-04-02 01:06:00,
2013-04-01 21:08:00,46.3,18.0,29.91,NNW,338,8.0,24.0,32,0.00,,,0.00,Wunderground PWS Mod,2013-04-02 01:08:00,
2013-04-01 21:10:00,46.3,18.0,29.91,NNW,338,8.0,24.0,32,0.00,,,0.00,Wunderground PWS Mod,2013-04-02 01:10:00,
2013-04-01 21:12:00,46.3,18.0,29.91,NNW,338,8.0,24.0,32,0.00,,,0.00,Wunderground PWS Mod,2013-04-02 01:12:00,
2013-04-01 21:14:00,45.9,18.4,29.93,NW,308,3.0,24.0,33,0.00,,,0.00,Wunderground PWS Mod,2013-04-02 01:14:00,
2013-04-01 21:24:00,45.6,18.1,29.94,NW,322,4.0,24.0,33,0.00,,,0.00,Wunderground PWS Mod,2013-04-02 01:24:00,
2013-04-01 21:34:00,45.4,17.9,29.94,NNW,345,4.0,24.0,33,0.00,,,0.00,Wunderground PWS Mod,2013-04-02 01:34:00,
2013-04-01 21:36:00,45.8,18.3,29.93,NW,315,5.0,13.0,33,0.00,,,0.00,Wunderground PWS Mod,2013-04-02 01:36:00,
2013-04-01 21:44:00,45.1,18.4,29.95,NNW,346,3.0,24.0,34,0.00,,,0.00,Wunderground PWS Mod,2013-04-02 01:44:00,
2013-04-01 21:54:00,44.8,18.1,29.95,NW,322,2.0,24.0,34,0.00,,,0.00,Wunderground PWS Mod,2013-04-02 01:54:00,
2013-04-01 22:04:00,44.4,18.4,29.95,NNW,342,4.0,8.0,35,0.00,,,0.00,Wunderground PWS Mod,2013-04-02 02:04:00,
2013-04-01 22:06:00,45.0,19.0,29.94,NW,315,3.0,8.0,35,0.00,,,0.00,Wunderground PWS Mod,2013-04-02 02:06:00,
2013-04-01 22:08:00,45.0,19.0,29.94,NW,315,3.0,8.0,35,0.00,,,0.00,Wunderground PWS Mod,2013-04-02 02:08:00,
2013-04-01 22:10:00,45.0,19.0,29.94,NW,315,3.0,8.0,35,0.00,,,0.00,Wunderground PWS Mod,2013-04-02 02:10:00,
2013-04-01 22:12:00,45.0,19.0,29.94,NW,315,3.0,8.0,35,0.00,,,0.00,Wunderground PWS Mod,2013-04-02 02:12:00,
2013-04-01 22:14:00,44.3,17.7,29.96,NW,326,3.0,8.0,34,0.00,,,0.00,Wunderground PWS Mod,2013-04-02 02:14:00,
2013-04-01 22:24:00,44.2,17.6,29.96,North,356,2.0,8.0,34,0.00,,,0.00,Wunderground PWS Mod,2013-04-02 02:24:00,
2013-04-01 22:34:00,43.9,17.3,29.96,NNW,342,2.0,8.0,34,0.00,,,0.00,Wunderground PWS Mod,2013-04-02 02:34:00,
2013-04-01 22:38:00,44.2,17.6,29.95,NNW,338,4.0,8.0,34,0.00,,,0.00,Wunderground PWS Mod,2013-04-02 02:38:00,
2013-04-01 22:44:00,43.6,17.0,29.97,North,0,2.0,8.0,34,0.00,,,0.00,Wunderground PWS Mod,2013-04-02 02:44:00,
2013-04-01 22:54:00,43.2,16.7,29.97,NNW,341,2.0,8.0,34,0.00,,,0.00,Wunderground PWS Mod,2013-04-02 02:54:00,
2013-04-01 23:04:00,42.8,17.0,29.97,NNW,335,2.0,7.0,35,0.00,,,0.00,Wunderground PWS Mod,2013-04-02 03:04:00,
2013-04-01 23:06:00,43.5,16.9,29.96,NNW,338,2.0,7.0,34,0.00,,,0.00,Wunderground PWS Mod,2013-04-02 03:06:00,
2013-04-01 23:08:00,43.5,16.9,29.96,NNW,338,2.0,7.0,34,0.00,,,0.00,Wunderground PWS Mod,2013-04-02 03:08:00,
2013-04-01 23:10:00,43.5,16.9,29.96,NNW,338,2.0,7.0,34,0.00,,,0.00,Wunderground PWS Mod,2013-04-02 03:10:00,
2013-04-01 23:12:00,43.5,16.9,29.96,NNW,338,2.0,7.0,34,0.00,,,0.00,Wunderground PWS Mod,2013-04-02 03:12:00,
2013-04-01 23:14:00,42.5,16.7,29.97,NNW,335,1.0,7.0,35,0.00,,,0.00,Wunderground PWS Mod,2013-04-02 03:14:00,
2013-04-01 23:24:00,41.9,16.9,29.98,NNW,335,1.0,7.0,36,0.00,,,0.00,Wunderground PWS Mod,2013-04-02 03:24:00,
2013-04-01 23:34:00,41.6,16.6,29.98,NNW,335,2.0,7.0,36,0.00,,,0.00,Wunderground PWS Mod,2013-04-02 03:34:00,
2013-04-01 23:42:00,42.3,16.6,29.97,NNW,338,2.0,4.0,35,0.00,,,0.00,Wunderground PWS Mod,2013-04-02 03:42:00,
2013-04-01 23:44:00,41.2,16.2,29.98,NNW,335,1.0,7.0,36,0.00,,,0.00,Wunderground PWS Mod,2013-04-02 03:44:00,
2013-04-01 23:54:00,40.9,16.0,29.99,NNW,335,1.0,7.0,36,0.00,,,0.00,Wunderground PWS Mod,2013-04-02 03:54:00,